Wind_Speed
46 46 45 43 42 40 39 35 34 34 32 31 30 32 31 29 24 24 23 23 23 22 21 19 18 17 14 12 13 10 10 9 8 5 5 7 9 11 10 11 12 14 13 12 10
46 47 46 46 44 42 40 38 37 35 35 34 33 33 31 28 28 26 24 25 25 24 22 21 19 18 17 16 15 12 9 7 4 5 4 3 4 7 9 10 11 13 14 14 14
48 48 47 46 45 46 42 42 39 39 38 36 35 35 33 31 28 27 26 25 24 25 24 23 22 19 18 18 17 14 11 8 7 6 5 4 6 8 9 10 13 14 15 16 16
48 48 50 47 47 44 45 43 43 41 40 38 36 36 34 31 30 28 27 26 26 25 25 24 23 21 20 19 18 14 13 11 9 10 8 7 9 13 13 14 14 13 13 15 18
49 46 47 48 48 46 45 45 44 43 41 41 39 39 37 33 32 31 28 27 28 26 25 23 23 23 21 19 18 15 15 14 13 13 9 12 13 14 15 17 19 19 21 22 24
51 50 48 48 48 49 48 46 46 45 45 41 41 39 37 34 33 32 29 28 27 27 26 24 23 23 20 19 18 16 17 17 18 15 13 15 16 18 18 20 21 23 24 26 28
55 52 50 48 48 49 49 49 47 46 45 42 42 39 37 35 34 33 31 29 28 27 27 25 23 22 21 20 18 17 18 19 19 17 17 19 19 20 21 23 25 26 26 28 30
56 57 52 49 49 48 50 49 50 50 47 43 41 40 39 37 35 34 32 31 29 29 28 27 26 23 24 23 20 20 22 21 18 18 21 22 20 21 23 26 28 28 29 30 30
58 58 56 52 52 51 50 52 51 51 51 49 45 42 39 40 36 34 34 33 31 31 30 29 27 26 27 24 22 24 27 21 19 17 18 21 22 25 27 29 30 30 31 32 33
62 62 59 56 54 54 52 52 53 52 50 49 48 45 43 40 38 35 34 36 34 33 31 31 28 30 32 23 26 28 27 27 22 19 20 23 28 31 30 31 34 32 33 34 34
62 62 63 61 58 56 56 54 52 50 51 51 46 45 44 43 40 37 35 35 38 36 35 33 31 36 28 26 29 29 29 31 26 22 22 25 31 35 33 35 35 34 34 36 37
65 62 61 59 61 58 57 57 59 56 53 49 46 44 45 46 44 43 40 37 39 40 39 36 35 35 32 30 31 32 29 33 31 26 25 29 32 39 35 36 36 37 38 40 42
63 64 63 62 61 59 61 61 61 59 56 53 49 46 48 48 47 47 46 43 42 43 43 37 35 37 35 32 31 33 31 34 31 33 30 32 34 40 39 37 38 38 40 43 46
71 69 66 65 60 63 63 66 64 64 59 49 52 47 46 49 46 52 51 50 46 46 45 40 41 42 40 39 39 32 36 36 35 34 34 37 30 43 43 41 42 42 45 46 46
76 71 63 65 60 64 71 67 64 65 60 54 51 48 50 52 48 53 54 53 50 52 50 46 47 43 42 42 40 37 41 40 39 37 38 40 38 38 47 47 46 44 45 47 47
77 78 72 67 63 67 74 72 70 67 49 53 53 51 54 54 53 53 56 56 55 55 52 51 50 48 46 48 47 44 47 49 45 45 38 48 48 35 48 52 50 48 48 50 54
83 83 81 77 68 77 76 78 75 57 48 46 50 50 51 54 56 58 59 60 59 57 55 57 55 53 53 53 53 50 49 48 48 49 46 50 51 45 49 50 51 53 54 57 59
88 90 90 83 78 79 79 80 72 48 52 52 54 55 54 56 56 58 59 62 62 61 59 56 55 58 57 57 55 52 52 51 52 54 52 51 50 53 57 57 60 61 64 66 71
92 91 92 87 82 80 80 84 56 56 58 59 59 61 63 63 62 60 58 57 56 62 62 59 59 59 58 58 55 53 52 59 57 54 54 55 56 58 61 64 64 65 62 62 65
94 92 92 87 86 82 86 80 64 63 64 65 69 68 68 68 64 62 60 54 55 58 61 59 58 58 59 59 57 57 60 61 61 61 60 59 59 61 63 67 71 74 76 77 75
95 94 88 88 91 94 96 77 72 73 68 67 70 74 69 70 70 63 59 58 58 60 63 61 60 59 62 59 63 65 64 66 69 69 67 65 65 65 69 71 75 77 79 79 79
100 102 89 94 98 98 95 76 79 77 75 73 71 72 66 64 66 68 64 64 65 65 64 64 64 62 61 62 64 64 64 70 73 75 74 71 67 73 74 77 80 84 85 82 78
110 105 100 100 102 97 90 87 85 82 78 76 70 76 73 66 64 64 68 70 73 72 70 72 69 69 67 66 67 70 72 75 78 79 75 79 73 80 80 82 86 87 84 83 83
111 113 110 108 104 100 96 90 87 84 81 80 76 81 76 71 67 63 69 74 75 74 76 79 78 77 73 76 76 75 76 78 79 77 75 71 75 79 83 87 88 88 91 93 94
115 117 113 113 108 108 104 102 96 92 83 84 82 76 77 80 75 66 70 75 77 77 79 82 80 81 79 82 83 81 79 80 80 78 77 73 79 86 90 95 96 94 95 97 99
116 117 113 111 108 105 103 96 91 89 91 90 84 80 83 82 75 74 79 81 80 81 82 85 83 83 79 80 85 82 81 79 78 83 85 88 85 93 98 95 94 96 99 98 99
124 122 121 116 110 108 107 107 102 101 98 94 89 91 90 77 82 85 84 85 84 84 85 86 86 87 89 89 88 93 77 83 82 83 87 90 91 97 99 100 102 97 95 97 96
Wind_Direction
239 240 241 241 242 243 248 250 250 253 256 258 260 262 266 269 270 271 268 268 270 275 271 273 275 276 279 268 270 266 285 294 292 298 288 290 295 301 306 292 283 294 302 305 297
241 241 242 245 244 245 247 247 249 252 254 256 259 262 265 264 267 269 266 265 266 269 267 268 269 274 274 272 268 259 277 277 285 283 302 321 303 303 303 304 304 295 298 297 298
240 243 244 246 246 247 248 251 248 248 252 255 257 260 265 266 267 265 269 268 269 268 266 269 271 273 270 271 271 265 268 259 262 267 275 299 294 296 298 303 296 293 290 292 290
238 241 245 244 247 248 248 248 251 250 251 255 255 258 262 267 266 262 262 265 268 267 267 268 269 271 271 271 268 263 262 265 269 269 283 297 300 302 306 299 301 297 294 295 303
238 241 242 244 247 249 250 249 251 254 253 253 256 258 263 263 265 263 263 267 266 264 266 267 267 267 267 267 266 267 264 272 275 276 283 296 294 294 296 297 297 301 304 311 313
238 241 243 244 246 247 248 250 251 252 256 255 256 261 265 264 265 261 262 265 263 261 261 264 262 263 263 261 261 263 263 267 275 283 290 292 301 296 291 294 296 299 301 304 306
238 241 242 244 244 245 248 247 250 253 257 257 259 261 262 261 262 261 258 262 261 260 257 260 261 261 264 261 258 260 261 264 277 288 293 293 297 297 299 301 302 300 301 299 297
237 241 242 243 243 244 245 248 245 249 254 257 259 259 262 260 259 259 255 258 259 258 259 257 261 259 258 258 255 257 259 258 269 283 287 285 287 289 291 293 291 290 288 288 289
235 239 242 243 244 244 244 244 247 248 252 255 257 260 260 261 258 260 255 256 258 260 260 259 262 265 259 257 257 261 263 261 265 273 271 277 281 284 284 283 282 282 283 283 288
235 237 239 239 242 244 244 246 246 247 250 253 254 256 258 260 260 261 261 257 257 260 261 260 262 263 258 261 263 262 266 268 266 268 275 282 286 283 287 284 283 283 284 290 295
232 234 236 238 240 243 243 244 246 246 248 250 251 252 254 256 259 261 261 258 255 257 256 258 260 260 265 262 263 265 266 269 268 266 274 277 281 286 288 285 285 286 285 285 286
232 234 235 237 237 241 243 245 245 242 243 247 249 252 254 254 256 260 262 260 257 258 256 254 256 262 263 262 262 264 263 264 268 270 272 277 277 280 285 283 285 286 287 287 288
236 233 235 238 239 242 244 245 244 244 242 246 245 249 252 251 253 257 260 260 258 257 255 255 258 262 262 265 263 262 263 263 268 270 274 277 278 279 282 281 284 283 281 283 285
224 231 234 234 236 242 245 244 244 244 241 242 249 245 249 250 250 252 255 257 259 259 260 256 256 260 264 264 262 268 268 267 268 268 273 277 270 276 275 275 277 278 278 282 281
234 229 230 233 236 242 245 245 245 246 242 240 249 248 248 249 246 251 251 252 255 257 259 257 258 262 264 264 267 267 270 270 269 273 268 276 266 267 273 273 276 279 281 281 283
236 236 227 231 235 244 243 244 243 244 241 242 246 253 250 250 249 248 251 250 252 254 258 260 258 261 264 269 272 270 269 268 271 271 265 269 265 261 266 271 273 274 277 277 279
235 237 235 228 227 239 243 242 239 241 240 240 244 249 253 254 254 252 251 251 250 251 254 257 258 260 264 269 269 268 268 271 272 273 268 262 265 262 260 264 268 270 273 273 278
235 239 240 234 229 232 239 241 241 242 242 237 241 242 246 249 255 255 256 254 253 253 255 259 259 261 263 265 268 267 271 273 271 269 269 264 264 262 265 268 271 273 274 273 276
235 238 239 238 232 235 239 238 234 238 243 244 242 239 245 247 250 253 255 260 262 259 255 256 255 256 262 264 266 266 270 269 271 275 273 268 265 264 265 270 272 271 273 275 278
235 238 240 240 237 236 240 239 233 237 240 242 246 242 242 246 248 251 251 253 254 255 257 258 257 258 259 263 267 268 266 269 273 272 274 270 266 269 273 274 274 272 272 274 276
234 237 237 239 238 236 238 237 235 236 238 244 243 245 246 246 248 250 252 255 254 254 256 257 257 257 259 263 265 265 268 271 272 274 274 272 272 273 275 275 274 274 276 278 280
231 235 234 237 239 241 242 241 239 238 238 239 243 245 252 253 250 252 253 254 254 255 257 258 258 259 260 261 264 267 268 269 270 269 273 276 276 276 276 276 276 276 277 280 282
229 233 234 239 240 242 241 239 238 240 243 241 245 246 248 248 253 255 253 254 255 257 259 259 260 261 262 264 265 262 262 266 268 270 275 277 278 275 277 276 275 276 277 279 283
230 232 235 236 238 240 240 238 240 241 243 244 241 243 248 250 253 256 255 254 255 257 258 260 261 262 263 262 261 263 263 267 269 273 273 278 278 278 278 278 277 276 276 279 281
229 232 234 239 239 240 242 241 241 242 242 243 244 245 248 248 251 253 257 257 256 257 258 260 261 262 263 263 263 262 266 269 272 273 275 275 276 280 281 279 278 279 280 282 285
227 231 234 238 241 241 241 240 244 245 244 246 245 245 246 248 250 249 252 253 256 256 259 260 262 262 261 263 265 263 267 272 275 273 273 273 275 278 278 282 284 281 283 284 283
226 227 231 234 236 238 241 243 245 245 247 247 248 248 249 250 250 249 252 253 254 257 258 259 260 261 264 265 265 265 275 274 277 276 276 277 278 278 280 284 286 287 286 289 289
Height
10776 10779 10782 10785 10788 10791 10794 10796 10799 10801 10802 10804 10805 10807 10808 10809 10810 10811 10810 10811 10812 10813 10813 10813 10813 10813 10812 10811 10811 10811 10811 10811 10810 10810 10809 10808 10807 10805 10807 10807 10808 10807 10807 10808 10808
10767 10770 10774 10778 10781 10784 10786 10790 10792 10794 10796 10798 10799 10800 10801 10803 10804 10805 10806 10806 10806 10807 10808 10808 10809 10808 10808 10808 10808 10808 10808 10809 10808 10807 10807 10807 10806 10804 10804 10803 10804 10804 10804 10804 10804
10757 10762 10766 10769 10773 10776 10779 10782 10785 10787 10789 10791 10792 10794 10795 10796 10798 10799 10800 10801 10801 10803 10803 10804 10804 10803 10803 10803 10804 10804 10805 10805 10805 10804 10804 10805 10804 10803 10802 10802 10800 10800 10799 10798 10799
10747 10751 10757 10761 10764 10768 10771 10774 10777 10779 10781 10783 10785 10787 10788 10790 10792 10793 10795 10796 10796 10797 10798 10799 10799 10799 10799 10799 10800 10801 10801 10801 10801 10801 10802 10802 10801 10800 10800 10797 10795 10794 10794 10794 10793
10737 10741 10746 10751 10755 10758 10762 10765 10768 10771 10773 10775 10778 10780 10781 10784 10786 10786 10789 10790 10790 10791 10792 10793 10793 10794 10794 10794 10795 10796 10796 10797 10797 10797 10798 10798 10797 10796 10795 10793 10792 10792 10792 10790 10789
10727 10731 10736 10740 10745 10748 10752 10756 10759 10762 10765 10768 10770 10772 10774 10777 10779 10780 10781 10782 10784 10785 10786 10787 10788 10788 10789 10790 10790 10791 10791 10792 10792 10792 10794 10793 10792 10791 10790 10789 10789 10788 10786 10784 10783
10716 10721 10725 10730 10735 10738 10742 10746 10750 10753 10755 10760 10762 10764 10767 10769 10771 10773 10774 10776 10777 10778 10780 10781 10781 10782 10783 10784 10784 10785 10786 10786 10786 10788 10787 10787 10786 10784 10783 10783 10782 10781 10780 10779 10778
10704 10710 10715 10720 10724 10728 10732 10735 10740 10743 10746 10750 10754 10757 10758 10761 10763 10765 10767 10769 10771 10772 10773 10774 10775 10776 10777 10778 10779 10780 10779 10781 10783 10784 10782 10780 10781 10780 10778 10777 10775 10775 10773 10772 10772
10692 10697 10703 10709 10714 10717 10720 10725 10729 10732 10737 10741 10745 10749 10751 10751 10755 10758 10760 10762 10764 10765 10766 10767 10769 10769 10770 10771 10774 10774 10773 10775 10777 10778 10778 10776 10775 10774 10773 10772 10770 10768 10767 10766 10765
10679 10685 10691 10696 10701 10705 10709 10714 10717 10722 10726 10731 10736 10739 10743 10743 10746 10750 10753 10755 10756 10757 10759 10760 10762 10761 10761 10767 10767 10766 10767 10766 10769 10772 10771 10769 10767 10766 10767 10765 10762 10761 10760 10759 10758
10664 10670 10677 10684 10689 10693 10697 10701 10707 10711 10715 10718 10726 10729 10732 10734 10737 10740 10743 10746 10747 10749 10750 10752 10754 10750 10757 10758 10758 10758 10759 10757 10760 10764 10764 10762 10759 10756 10757 10755 10754 10754 10753 10751 10750
10649 10656 10663 10670 10676 10681 10685 10689 10690 10698 10703 10708 10715 10719 10722 10725 10727 10729 10732 10736 10738 10739 10741 10743 10745 10744 10747 10749 10749 10749 10751 10749 10751 10754 10755 10753 10752 10746 10749 10747 10746 10746 10745 10743 10742
10634 10641 10649 10656 10663 10670 10671 10672 10677 10683 10693 10696 10703 10709 10710 10714 10717 10720 10721 10724 10726 10728 10729 10735 10737 10735 10737 10739 10740 10741 10742 10739 10742 10743 10746 10746 10744 10738 10737 10737 10737 10736 10735 10734 10733
10614 10624 10633 10641 10653 10653 10656 10655 10662 10670 10680 10693 10690 10700 10701 10701 10708 10705 10707 10711 10715 10717 10719 10726 10725 10724 10727 10729 10728 10734 10731 10732 10734 10735 10736 10735 10738 10728 10725 10726 10725 10724 10722 10722 10721
10603 10608 10616 10630 10640 10640 10633 10642 10650 10653 10669 10680 10682 10687 10688 10689 10694 10692 10694 10698 10703 10703 10706 10713 10713 10714 10716 10716 10719 10724 10720 10721 10723 10725 10728 10726 10725 10728 10714 10713 10713 10713 10712 10711 10710
10587 10594 10598 10611 10624 10622 10618 10622 10630 10635 10664 10672 10674 10672 10673 10675 10679 10679 10680 10684 10688 10691 10695 10698 10701 10702 10704 10705 10707 10711 10709 10709 10712 10714 10720 10712 10711 10722 10708 10701 10700 10700 10700 10699 10697
10570 10575 10584 10591 10604 10598 10598 10603 10608 10634 10653 10660 10662 10659 10657 10659 10662 10665 10666 10670 10674 10678 10681 10681 10687 10690 10693 10692 10693 10696 10696 10699 10700 10701 10705 10702 10700 10707 10701 10695 10691 10688 10686 10685 10683
10551 10556 10563 10579 10582 10576 10580 10583 10600 10642 10637 10641 10643 10644 10646 10644 10647 10649 10653 10658 10662 10664 10666 10671 10675 10676 10679 10679 10681 10683 10685 10685 10686 10687 10690 10691 10693 10691 10684 10684 10681 10678 10674 10671 10667
10531 10536 10542 10558 10568 10563 10562 10562 10613 10619 10619 10622 10623 10628 10630 10632 10635 10636 10640 10646 10649 10650 10650 10655 10661 10662 10663 10664 10666 10672 10674 10665 10671 10674 10676 10678 10678 10676 10673 10668 10667 10663 10658 10654 10652
10513 10518 10529 10541 10548 10543 10536 10561 10592 10596 10598 10601 10607 10610 10614 10616 10621 10624 10629 10636 10633 10634 10633 10641 10644 10648 10650 10649 10653 10655 10653 10654 10655 10657 10659 10664 10662 10661 10660 10656 10651 10645 10639 10638 10638
10493 10495 10518 10521 10522 10512 10513 10562 10569 10575 10580 10582 10589 10592 10600 10603 10605 10613 10618 10622 10621 10619 10618 10625 10627 10632 10634 10638 10634 10636 10640 10638 10636 10640 10639 10642 10648 10648 10643 10639 10632 10628 10623 10622 10621
10472 10472 10499 10494 10488 10497 10510 10554 10550 10555 10559 10564 10571 10578 10583 10587 10592 10599 10606 10605 10604 10604 10606 10607 10609 10615 10618 10619 10620 10622 10626 10621 10619 10619 10622 10627 10637 10627 10624 10620 10616 10609 10607 10606 10602
10449 10457 10467 10469 10466 10480 10512 10515 10523 10534 10543 10551 10558 10562 10566 10571 10574 10585 10590 10590 10589 10591 10593 10590 10594 10595 10603 10607 10607 10602 10602 10602 10599 10600 10611 10605 10617 10603 10604 10598 10592 10588 10587 10585 10582
10429 10431 10436 10441 10457 10465 10482 10497 10505 10516 10522 10530 10540 10537 10549 10556 10563 10571 10574 10573 10571 10574 10573 10569 10575 10582 10587 10583 10583 10585 10585 10583 10580 10587 10589 10598 10588 10581 10577 10573 10569 10568 10566 10564 10559
10402 10406 10414 10418 10435 10451 10461 10480 10487 10494 10507 10506 10517 10530 10534 10532 10542 10557 10555 10551 10552 10555 10554 10552 10558 10555 10564 10563 10563 10568 10570 10566 10566 10571 10567 10577 10571 10556 10548 10543 10544 10545 10542 10541 10535
10379 10388 10397 10403 10417 10428 10438 10453 10465 10478 10482 10490 10501 10512 10505 10511 10531 10531 10526 10528 10533 10534 10533 10533 10539 10534 10540 10543 10540 10545 10553 10556 10554 10552 10548 10544 10553 10537 10523 10521 10520 10517 10515 10512 10506
10353 10364 10374 10385 10396 10403 10414 10431 10449 10450 10454 10467 10481 10477 10483 10511 10503 10503 10503 10508 10512 10513 10515 10514 10516 10515 10517 10519 10519 10515 10546 10532 10534 10533 10527 10523 10528 10510 10505 10501 10499 10496 10489 10480 10474